This is the latest recevied weather packets stored in our database for station/object SQ9IWE-13. If no packets are shown the sender has not sent any weather packets the latest 10 day(s).
| Time | Temp. | Humidity | Pressure | Rain* | Wind** | Luminosity | Snow |
|---|---|---|---|---|---|---|---|
| 1777894801 | 28.89° C | 31% | 1013.7 hPa | - | - | - | - |
| 1777894201 | 27.22° C | 32% | 1013.8 hPa | - | - | - | - |
| 1777893601 | 29.44° C | 32% | 1014 hPa | - | - | - | - |
| 1777893001 | 27.78° C | 32% | 1014 hPa | - | - | - | - |
| 1777892401 | 27.78° C | 32% | 1014.2 hPa | - | - | - | - |
| 1777891801 | 27.22° C | 32% | 1014.3 hPa | - | - | - | - |
| 1777891201 | 26.67° C | 33% | 1014.4 hPa | - | - | - | - |
| 1777890600 | 27.78° C | 32% | 1014.3 hPa | - | - | - | - |
| 1777890001 | 25.56° C | 33% | 1014.7 hPa | - | - | - | - |
| 1777889401 | 25.56° C | 33% | 1014.9 hPa | - | - | - | - |
| 1777888800 | 25.56° C | 33% | 1015 hPa | - | - | - | - |
| 1777888200 | 26.67° C | 32% | 1015 hPa | - | - | - | - |
| 1777887601 | 26.67° C | 32% | 1015.1 hPa | - | - | - | - |
| 1777887001 | 25.56° C | 33% | 1015.2 hPa | - | - | - | - |
| 1777886401 | 25.56° C | 32% | 1015.2 hPa | - | - | - | - |
| 1777885801 | 26.67° C | 33% | 1015.3 hPa | - | - | - | - |
| 1777885201 | 25.56° C | 34% | 1015.4 hPa | - | - | - | - |
| 1777884601 | 25.56° C | 33% | 1015.5 hPa | - | - | - | - |
| 1777884001 | 25° C | 33% | 1015.4 hPa | - | - | - | - |
| 1777883401 | 25° C | 33% | 1015.5 hPa | - | - | - | - |
| 1777882801 | 24.44° C | 35% | 1015.4 hPa | - | - | - | - |
| 1777882201 | 24.44° C | 34% | 1015.4 hPa | - | - | - | - |
| 1777881601 | 24.44° C | 34% | 1015.5 hPa | - | - | - | - |
| 1777881001 | 24.44° C | 35% | 1015.4 hPa | - | - | - | - |
| 1777880401 | 23.89° C | 35% | 1015.5 hPa | - | - | - | - |
* Rain since midnight (hover to see other rain measurements)
** Current wind speed in m/s (hover to see current wind gust speed)